Weather History for Bolton Field, OH

Change the Weather History Date:

Friday, October 26, 2012

  Actual Average Record
Temperature  
Mean Temperature 54 °F -  
Max Temperature 63 °F 60 °F 77 °F (2010)
Min Temperature 46 °F 42 °F 30 °F (2013)
Degree Days  
Heating Degree Days 10    
Growing Degree Days 4 (Base 50)    
Moisture  
Dew Point 49 °F    
Average Humidity 83    
Maximum Humidity 100    
Minimum Humidity 65    
Precipitation  
Precipitation 0.14 in - - ()
Sea Level Pressure  
Sea Level Pressure 30.06 in    
Wind  
Wind Speed 9 mph (West)    
Max Wind Speed 15 mph    
Max Gust Speed 23 mph    
Visibility 9 miles    
Events Rain    
Averages and records for this station are not official NWS values.
T = Trace of Precipitation, MM = Missing Value Source: NWS Daily Summary

Daily Weather History Graph

Daily Weather History Graph

Search for Another Location

Airport:

Trip Planner

Search our weather history database for the weather conditions in past years. The results will help you decide how hot, cold, wet, or windy it might be!

Date:

Astronomy

Oct. 26, 2012 Rise Set
Actual Time 7:55 AM EDT 6:37 PM EDT
Civil Twilight 7:27 AM EDT 7:04 PM EDT
Nautical Twilight 6:55 AM EDT 7:36 PM EDT
Astronomical Twilight 6:24 AM EDT 8:07 PM EDT
Moon 4:52 PM EDT (10/26) 4:50 AM EDT (10/26)
Length of Visible Light 11h 37m
Length of Day
10h 41m
Waxing Gibbous, 91% of the Moon is Illuminated
Oct 26
Waxing Gibbous
Oct 29
Full
Nov 6
Last Quarter
Nov 13
New
Nov 20
First Quarter

Hourly Weather History & Observations

Time (EDT) Temp. Windchill Dew Point Humidity Pressure Visibility Wind Dir Wind Speed Gust Speed Precip Events Conditions
12:15 AM 60.6 °F - 50.2 °F 68% 29.99 in 10.0 mi South 5.8 mph - N/A   Clear
12:35 AM 59.4 °F - 49.6 °F 70% 29.99 in 10.0 mi South 8.1 mph - N/A   Clear
12:55 AM 61.5 °F - 50.9 °F 68% 29.99 in 10.0 mi South 9.2 mph - N/A   Clear
1:15 AM 63.0 °F - 51.1 °F 65% 29.99 in 10.0 mi SSW 10.4 mph - N/A   Clear
1:35 AM 60.1 °F - 50.9 °F 72% 29.99 in 10.0 mi SSW 9.2 mph - N/A   Clear
2:15 AM 59.5 °F - 50.5 °F 72% 29.99 in 10.0 mi SSW 8.1 mph - N/A   Clear
2:35 AM 59.9 °F - 50.9 °F 72% 29.99 in 10.0 mi South 6.9 mph - N/A   Clear
2:55 AM 61.0 °F - 50.9 °F 69% 29.99 in 10.0 mi South 8.1 mph - N/A   Clear
3:15 AM 58.1 °F - 50.4 °F 75% 29.99 in 10.0 mi South 8.1 mph - N/A   Clear
3:35 AM 60.1 °F - 50.9 °F 72% 29.99 in 10.0 mi South 8.1 mph - N/A   Clear
3:55 AM 59.5 °F - 50.5 °F 72% 29.99 in 10.0 mi South 8.1 mph - N/A   Clear
4:15 AM 59.0 °F - 50.7 °F 74% 29.99 in 10.0 mi South 6.9 mph - N/A   Clear
4:35 AM 59.0 °F - 50.9 °F 74% 29.99 in 10.0 mi South 6.9 mph - N/A   Clear
4:55 AM 58.3 °F - 50.7 °F 76% 29.99 in 10.0 mi South 5.8 mph - N/A   Clear
5:15 AM 57.4 °F - 50.5 °F 78% 30.00 in 10.0 mi SSE 5.8 mph - N/A   Clear
5:35 AM 56.7 °F - 50.9 °F 81% 30.01 in 10.0 mi South 6.9 mph - N/A   Scattered Clouds
5:55 AM 56.5 °F - 51.3 °F 83% 30.01 in 10.0 mi South 6.9 mph - N/A   Mostly Cloudy
6:15 AM 56.7 °F - 51.8 °F 84% 30.02 in 10.0 mi SSW 6.9 mph - N/A   Overcast
6:35 AM 57.0 °F - 51.8 °F 83% 30.03 in 10.0 mi WSW 4.6 mph - N/A   Overcast
6:55 AM 58.5 °F - 51.8 °F 79% 30.04 in 10.0 mi West 6.9 mph - N/A   Mostly Cloudy
7:15 AM 57.7 °F - 52.0 °F 81% 30.05 in 10.0 mi WNW 6.9 mph - N/A   Scattered Clouds
7:35 AM 55.6 °F - 52.7 °F 90% 30.06 in 10.0 mi WNW 10.4 mph 16.1 mph N/A   Scattered Clouds
7:55 AM 54.7 °F - 52.9 °F 94% 30.06 in 7.0 mi WNW 11.5 mph - N/A   Mostly Cloudy
8:15 AM 55.6 °F - 53.6 °F 93% 30.07 in 7.0 mi NNW 9.2 mph - N/A   Overcast
8:50 AM 57.2 °F - 53.6 °F 88% 30.10 in 7.0 mi NW 15.0 mph - N/A   Overcast
8:55 AM 55.4 °F - 53.6 °F 94% 30.07 in 10.0 mi NW 12.7 mph 17.3 mph N/A   Mostly Cloudy
9:50 AM 53.6 °F - 50.0 °F 88% 30.14 in 7.0 mi NW 10.4 mph - N/A   Overcast
10:55 AM 55.4 °F - 48.2 °F 77% 30.13 in 7.0 mi NNW 11.5 mph - N/A   Overcast
11:47 AM 53.6 °F - 46.4 °F 77% 30.14 in 10.0 mi NNW 12.7 mph 17.3 mph N/A   Overcast
12:47 PM 51.8 °F - 46.4 °F 82% 30.15 in 10.0 mi NNW 11.5 mph - N/A   Overcast
1:47 PM 51.8 °F - 44.6 °F 76% 30.13 in 10.0 mi NNW 10.4 mph - N/A   Overcast
2:47 PM 48.2 °F - 46.4 °F 93% 30.13 in 10.0 mi NNW 11.5 mph - N/A   Drizzle
3:52 PM 46.4 °F 40.1 °F 44.6 °F 93% 30.13 in 10.0 mi NNW 15.0 mph 23.0 mph N/A   Overcast
4:46 PM 48.2 °F - 44.6 °F 87% 30.13 in 10.0 mi North 15.0 mph 21.9 mph N/A   Overcast
5:50 PM 46.4 °F 41.1 °F 46.4 °F 100% 30.12 in 10.0 mi North 11.5 mph - N/A   Light Drizzle
6:50 PM 46.4 °F 40.4 °F 46.4 °F 100% 30.12 in 10.0 mi North 13.8 mph - N/A   Overcast
9:15 PM 46.6 °F - 45.5 °F 96% 30.12 in 5.0 mi North 11.5 mph - 0.07 in Rain Heavy Rain
9:35 PM 46.4 °F 40.4 °F 45.5 °F 97% 30.10 in 10.0 mi North 13.8 mph 18.4 mph 0.10 in Rain Light Rain
9:55 PM 46.4 °F 40.7 °F 45.5 °F 97% 30.11 in 10.0 mi North 12.7 mph - 0.10 in Rain Rain
10:15 PM 46.4 °F 40.7 °F 45.5 °F 97% 30.10 in 10.0 mi North 12.7 mph - 0.01 in Rain Rain
10:35 PM 46.6 °F - 45.5 °F 96% 30.10 in 10.0 mi North 10.4 mph - 0.02 in Rain Light Rain
11:15 PM 46.8 °F - 45.7 °F 96% 30.09 in 10.0 mi North 10.4 mph 18.4 mph N/A   Light Drizzle
11:35 PM 46.8 °F - 45.9 °F 97% 30.09 in 7.0 mi North 8.1 mph - 0.01 in Rain Rain
11:55 PM 46.8 °F - 46.0 °F 97% 30.09 in 7.0 mi North 9.2 mph - 0.02 in Rain Light Rain